Location: Unspecified
(0.0000°N, 0.0000°E)
Time: 19:48:04
(UTC+00:00)

Transit 2A - Pass Details

Date: 23 April 2024
Orbit: 594 x 958 km, 66.7° (Epoch: 22 May)

Event Time Altitude Azimuth Distance (km) Brightness Sun altitude
Rises 17:05:17 0° 310° (NW) 3,572 10.7 12.9°
Reaches altitude 10° 17:08:34 10° 293° (WNW) 2,661 11.3 12.1°
Maximum altitude 17:12:49 19° 250° (WSW) 2,101 9.4 11.1°
Drops below altitude 10° 17:17:07 10° 206° (SSW) 2,681 9.0 10.0°
Sets 17:20:27 0° 189° (S) 3,607 9.4 9.2°
